| time (UTC) | temp F | wind direction | speed MPH | gust MPH | rain 1hr in | rain 24hr in | rain mn in | humidity % | barometer mb |
| 20260504185409 | 66 | 216 | 11.0 | 21.0 | 0.00 | 0.00 | 0.00 | 56 | 1011.4 |
| 20260504184908 | 65 | 232 | 10.0 | 24.0 | 0.00 | 0.00 | 0.00 | 56 | 1011.5 |
| 20260504184409 | 66 | 226 | 10.0 | 18.0 | 0.00 | 0.00 | 0.00 | 56 | 1011.6 |
| 20260504183909 | 65 | 225 | 10.0 | 21.0 | 0.00 | 0.00 | 0.00 | 56 | 1011.6 |
| 20260504183409 | 65 | 232 | 9.0 | 18.0 | 0.00 | 0.00 | 0.00 | 56 | 1011.6 |
| 20260504182909 | 65 | 223 | 9.0 | 18.0 | 0.00 | 0.00 | 0.00 | 56 | 1011.6 |
| 20260504182408 | 65 | 217 | 10.0 | 16.0 | 0.00 | 0.00 | 0.00 | 57 | 1011.8 |
| 20260504181908 | 65 | 224 | 11.0 | 21.0 | 0.00 | 0.00 | 0.00 | 57 | 1011.8 |
| 20260504181408 | 65 | 226 | 10.0 | 17.0 | 0.00 | 0.00 | 0.00 | 57 | 1011.8 |
| 20260504180909 | 65 | 217 | 12.0 | 17.0 | 0.00 | 0.00 | 0.00 | 57 | 1011.8 |
| 20260504175908 | 65 | 224 | 10.0 | 15.0 | 0.00 | 0.00 | 0.00 | 57 | 1011.9 |
| 20260504174908 | 65 | 218 | 10.0 | 17.0 | 0.00 | 0.00 | 0.00 | 58 | 1011.9 |
| 20260504174408 | 65 | 221 | 10.0 | 21.0 | 0.00 | 0.00 | 0.00 | 58 | 1012.0 |
| 20260504173907 | 65 | 213 | 11.0 | 18.0 | 0.00 | 0.00 | 0.00 | 58 | 1012.1 |
| 20260504173408 | 65 | 227 | 10.0 | 17.0 | 0.00 | 0.00 | 0.00 | 59 | 1012.1 |
| 20260504172908 | 65 | 223 | 9.0 | 17.0 | 0.00 | 0.00 | 0.00 | 58 | 1012.2 |
| 20260504172407 | 65 | 228 | 10.0 | 17.0 | 0.00 | 0.00 | 0.00 | 58 | 1012.3 |
| 20260504171408 | 65 | 232 | 9.0 | 16.0 | 0.00 | 0.00 | 0.00 | 59 | 1012.5 |
| 20260504170907 | 65 | 227 | 10.0 | 17.0 | 0.00 | 0.00 | 0.00 | 58 | 1012.5 |
| 20260504150910 | 68 | 239 | 8.0 | 13.0 | 0.00 | 0.00 | 0.00 | 53 | 1013.9 |
| 20260504150408 | 68 | 234 | 7.0 | 12.0 | 0.00 | 0.00 | 0.00 | 52 | 1013.9 |
| 20260504140909 | 66 | 237 | 8.0 | 15.0 | 0.00 | 0.00 | 0.00 | 54 | 1014.1 |
| 20260504130408 | 61 | 255 | 7.0 | 14.0 | 0.00 | 0.00 | 0.00 | 59 | 1014.7 |
| 20260504110409 | 53 | 275 | 6.0 | 14.0 | 0.00 | 0.00 | 0.00 | 66 | 1014.7 |
| 20260504100408 | 51 | 278 | 9.0 | 15.0 | 0.00 | 0.00 | 0.00 | 72 | 1014.5 |
| 20260504081908 | 52 | 277 | 6.0 | 12.0 | 0.00 | 0.00 | 0.00 | 63 | 1013.7 |
| 20260504080405 | 52 | 279 | 6.0 | 12.0 | 0.00 | 0.00 | 0.00 | 64 | 1013.7 |
| 20260504070408 | 52 | 279 | 7.0 | 12.0 | 0.00 | 0.00 | 0.00 | 61 | 1013.2 |
| 20260504050408 | 52 | 263 | 6.0 | 10.0 | 0.00 | 0.00 | 0.00 | 65 | 1012.9 |
| 20260504045905 | 52 | 274 | 5.0 | 12.0 | 0.00 | 0.00 | 0.00 | 64 | 1012.8 |
| 20260504045406 | 53 | 267 | 6.0 | 12.0 | 0.00 | 0.00 | 0.00 | 64 | 1012.8 |
| 20260504044908 | 53 | 276 | 4.0 | 9.0 | 0.00 | 0.00 | 0.00 | 64 | 1012.8 |
| 20260504043905 | 53 | 283 | 5.0 | 14.0 | 0.00 | 0.00 | 0.00 | 64 | 1012.8 |
| 20260504042909 | 53 | 277 | 7.0 | 14.0 | 0.00 | 0.00 | 0.00 | 63 | 1012.8 |
| 20260504042407 | 53 | 266 | 5.0 | 12.0 | 0.00 | 0.00 | 0.00 | 63 | 1012.8 |
| 20260504041908 | 53 | 279 | 7.0 | 15.0 | 0.00 | 0.00 | 0.00 | 63 | 1012.8 |
| 20260504040906 | 53 | 269 | 6.0 | 10.0 | 0.00 | 0.00 | 0.00 | 63 | 1012.6 |
| 20260504035909 | 53 | 271 | 5.0 | 10.0 | 0.00 | 0.00 | 0.00 | 62 | 1012.6 |
| 20260504035406 | 53 | 254 | 5.0 | 8.0 | 0.00 | 0.00 | 0.00 | 60 | 1012.5 |
| 20260504034909 | 53 | 269 | 5.0 | 10.0 | 0.00 | 0.00 | 0.00 | 60 | 1012.7 |
| 20260504034408 | 53 | 268 | 4.0 | 9.0 | 0.00 | 0.00 | 0.00 | 60 | 1012.6 |
| 20260504033907 | 53 | 277 | 5.0 | 9.0 | 0.00 | 0.00 | 0.00 | 61 | 1012.5 |
| 20260504033408 | 53 | 283 | 6.0 | 12.0 | 0.00 | 0.00 | 0.00 | 64 | 1012.5 |
| 20260504031908 | 53 | 264 | 5.0 | 9.0 | 0.00 | 0.00 | 0.00 | 64 | 1012.4 |
| 20260504031409 | 53 | 265 | 4.0 | 8.0 | 0.00 | 0.00 | 0.00 | 63 | 1012.4 |
| 20260504030908 | 53 | 262 | 4.0 | 8.0 | 0.00 | 0.00 | 0.00 | 62 | 1012.5 |
| 20260504030408 | 53 | 267 | 5.0 | 8.0 | 0.00 | 0.00 | 0.00 | 62 | 1012.5 |
| 20260504025908 | 53 | 276 | 6.0 | 9.0 | 0.00 | 0.00 | 0.00 | 62 | 1012.5 |
| 20260504025405 | 53 | 281 | 7.0 | 14.0 | 0.00 | 0.00 | 0.00 | 64 | 1012.5 |
| 20260504024908 | 53 | 281 | 6.0 | 9.0 | 0.00 | 0.00 | 0.00 | 65 | 1012.4 |
| 20260504024409 | 53 | 279 | 5.0 | 8.0 | 0.00 | 0.00 | 0.00 | 65 | 1012.5 |
| 20260504023905 | 53 | 249 | 2.0 | 6.0 | 0.00 | 0.00 | 0.00 | 65 | 1012.5 |
| 20260504023408 | 53 | 277 | 4.0 | 8.0 | 0.00 | 0.00 | 0.00 | 64 | 1012.6 |
| 20260504022908 | 53 | 276 | 4.0 | 9.0 | 0.00 | 0.00 | 0.00 | 64 | 1012.6 |
| 20260504021909 | 53 | 265 | 5.0 | 8.0 | 0.00 | 0.00 | 0.00 | 62 | 1012.4 |
| 20260504021409 | 53 | 261 | 3.0 | 7.0 | 0.00 | 0.00 | 0.00 | 61 | 1012.4 |
| 20260504020908 | 53 | 259 | 4.0 | 7.0 | 0.00 | 0.00 | 0.00 | 60 | 1012.3 |
| 20260504020409 | 53 | 259 | 3.0 | 8.0 | 0.00 | 0.00 | 0.00 | 60 | 1012.4 |
| 20260504015905 | 53 | 261 | 5.0 | 7.0 | 0.00 | 0.00 | 0.00 | 60 | 1012.4 |
| 20260504015409 | 53 | 261 | 3.0 | 5.0 | 0.00 | 0.00 | 0.00 | 59 | 1012.4 |
| 20260504014908 | 53 | 272 | 3.0 | 7.0 | 0.00 | 0.00 | 0.00 | 57 | 1012.4 |
| 20260504014409 | 53 | 274 | 4.0 | 7.0 | 0.00 | 0.00 | 0.00 | 55 | 1012.3 |
| 20260504013408 | 53 | 255 | 3.0 | 5.0 | 0.00 | 0.00 | 0.00 | 49 | 1012.2 |
| 20260504012908 | 53 | 306 | 0.0 | 0.0 | 0.00 | 0.00 | 0.00 | 46 | 1012.2 |
| 20260504011909 | 53 | 306 | 0.0 | 0.0 | 0.00 | 0.00 | 0.00 | 42 | 1012.1 |
| 20260504011408 | 54 | 306 | 0.0 | 0.0 | 0.00 | 0.00 | 0.00 | 42 | 1012.0 |
| 20260504010909 | 54 | 306 | 0.0 | 0.0 | 0.00 | 0.00 | 0.00 | 40 | 1011.9 |
| 20260504010408 | 54 | 306 | 0.0 | 0.0 | 0.00 | 0.00 | 0.00 | 39 | 1011.8 |
| 20260504005908 | 55 | 306 | 0.0 | 0.0 | 0.00 | 0.00 | 0.00 | 38 | 1011.9 |
| 20260504004908 | 55 | 306 | 0.0 | 0.0 | 0.00 | 0.00 | 0.00 | 36 | 1011.6 |
| 20260504003904 | 56 | 306 | 0.0 | 1.0 | 0.00 | 0.00 | 0.00 | 34 | 1011.5 |
| 20260504003408 | 56 | 294 | 0.0 | 0.0 | 0.00 | 0.00 | 0.00 | 34 | 1011.5 |
| 20260504002904 | 57 | 294 | 0.0 | 1.0 | 0.00 | 0.00 | 0.00 | 33 | 1011.3 |
| 20260504002408 | 57 | 309 | 0.0 | 2.0 | 0.00 | 0.00 | 0.00 | 32 | 1011.2 |
| 20260504001908 | 57 | 296 | 2.0 | 5.0 | 0.00 | 0.00 | 0.00 | 32 | 1011.2 |
| 20260504001408 | 57 | 299 | 1.0 | 8.0 | 0.00 | 0.00 | 0.00 | 32 | 1011.2 |
| 20260504000909 | 58 | 297 | 2.0 | 6.0 | 0.00 | 0.00 | 0.00 | 32 | 1011.1 |
| 20260504000404 | 58 | 315 | 2.0 | 3.0 | 0.00 | 0.00 | 0.00 | 31 | 1011.0 |
| 20260503235909 | 58 | 303 | 3.0 | 6.0 | 0.00 | 0.00 | 0.00 | 30 | 1011.0 |
| 20260503235405 | 58 | 342 | 1.0 | 3.0 | 0.00 | 0.00 | 0.00 | 30 | 1010.9 |
| 20260503234905 | 59 | 336 | 1.0 | 5.0 | 0.00 | 0.00 | 0.00 | 29 | 1011.0 |
| 20260503234408 | 59 | 303 | 2.0 | 8.0 | 0.00 | 0.00 | 0.00 | 29 | 1010.7 |
| 20260503233908 | 59 | 292 | 3.0 | 9.0 | 0.00 | 0.00 | 0.00 | 28 | 1010.8 |
| 20260503233408 | 59 | 335 | 3.0 | 8.0 | 0.00 | 0.00 | 0.00 | 28 | 1010.7 |
| 20260503232909 | 59 | 310 | 4.0 | 8.0 | 0.00 | 0.00 | 0.00 | 27 | 1010.6 |
| 20260503231908 | 60 | 314 | 5.0 | 10.0 | 0.00 | 0.00 | 0.00 | 26 | 1010.4 |
| 20260503230904 | 60 | 355 | 3.0 | 9.0 | 0.00 | 0.00 | 0.00 | 26 | 1010.4 |
| 20260503230408 | 61 | 320 | 5.0 | 13.0 | 0.00 | 0.00 | 0.00 | 26 | 1010.4 |
| 20260503225908 | 61 | 2 | 6.0 | 10.0 | 0.00 | 0.00 | 0.00 | 26 | 1010.4 |
| 20260503224904 | 61 | 307 | 6.0 | 15.0 | 0.00 | 0.00 | 0.00 | 26 | 1010.4 |
| 20260503224408 | 62 | 8 | 3.0 | 12.0 | 0.00 | 0.00 | 0.00 | 25 | 1010.3 |
| 20260503223908 | 62 | 353 | 5.0 | 13.0 | 0.00 | 0.00 | 0.00 | 24 | 1010.4 |
| 20260503223408 | 62 | 331 | 8.0 | 16.0 | 0.00 | 0.00 | 0.00 | 24 | 1010.4 |
| 20260503222908 | 62 | 320 | 7.0 | 18.0 | 0.00 | 0.00 | 0.00 | 25 | 1010.2 |
| 20260503222406 | 62 | 337 | 5.0 | 10.0 | 0.00 | 0.00 | 0.00 | 25 | 1010.3 |
| 20260503221908 | 62 | 327 | 7.0 | 18.0 | 0.00 | 0.00 | 0.00 | 25 | 1010.2 |
| 20260503221409 | 61 | 290 | 6.0 | 16.0 | 0.00 | 0.00 | 0.00 | 26 | 1010.1 |
| 20260503220907 | 62 | 323 | 5.0 | 14.0 | 0.00 | 0.00 | 0.00 | 26 | 1010.2 |
| 20260503215406 | 62 | 298 | 5.0 | 15.0 | 0.00 | 0.00 | 0.00 | 27 | 1010.3 |
| 20260503214908 | 62 | 338 | 9.0 | 20.0 | 0.00 | 0.00 | 0.00 | 26 | 1010.3 |
| 20260503214409 | 62 | 351 | 7.0 | 16.0 | 0.00 | 0.00 | 0.00 | 26 | 1010.3 |
| 20260503213907 | 62 | 334 | 5.0 | 17.0 | 0.00 | 0.00 | 0.00 | 26 | 1010.3 |
| 20260503213408 | 62 | 285 | 9.0 | 18.0 | 0.00 | 0.00 | 0.00 | 27 | 1010.2 |
| 20260503212909 | 62 | 312 | 5.0 | 20.0 | 0.00 | 0.00 | 0.00 | 28 | 1010.2 |
| 20260503212408 | 61 | 327 | 8.0 | 15.0 | 0.00 | 0.00 | 0.00 | 27 | 1010.1 |
| 20260503211908 | 61 | 328 | 12.0 | 23.0 | 0.00 | 0.00 | 0.00 | 25 | 1010.1 |
| 20260503211408 | 62 | 329 | 8.0 | 18.0 | 0.00 | 0.00 | 0.00 | 27 | 1010.1 |
| 20260503210908 | 61 | 305 | 9.0 | 21.0 | 0.00 | 0.00 | 0.00 | 28 | 1010.1 |
| 20260503210408 | 61 | 288 | 9.0 | 18.0 | 0.00 | 0.00 | 0.00 | 28 | 1010.0 |
| 20260503205908 | 61 | 318 | 10.0 | 20.0 | 0.00 | 0.00 | 0.00 | 26 | 1010.0 |
| 20260503205408 | 62 | 327 | 9.0 | 25.0 | 0.00 | 0.00 | 0.00 | 27 | 1010.0 |
| 20260503204908 | 61 | 332 | 8.0 | 21.0 | 0.00 | 0.00 | 0.00 | 27 | 1010.1 |
| 20260503204409 | 60 | 332 | 10.0 | 18.0 | 0.00 | 0.00 | 0.00 | 28 | 1010.0 |
| 20260503203907 | 60 | 324 | 12.0 | 23.0 | 0.00 | 0.00 | 0.00 | 28 | 1010.1 |
| 20260503203413 | 60 | 348 | 12.0 | 29.0 | 0.00 | 0.00 | 0.00 | 28 | 1009.9 |
| 20260503202908 | 60 | 311 | 9.0 | 22.0 | 0.00 | 0.00 | 0.00 | 30 | 1010.0 |
| 20260503202407 | 60 | 328 | 8.0 | 16.0 | 0.00 | 0.00 | 0.00 | 31 | 1010.1 |
| 20260503201906 | 59 | 307 | 12.0 | 22.0 | 0.00 | 0.00 | 0.00 | 31 | 1010.1 |
| 20260503201409 | 60 | 341 | 7.0 | 17.0 | 0.00 | 0.00 | 0.00 | 30 | 1010.1 |
| 20260503200408 | 60 | 342 | 9.0 | 21.0 | 0.00 | 0.00 | 0.00 | 29 | 1010.2 |
| 20260503195908 | 60 | 327 | 8.0 | 18.0 | 0.00 | 0.00 | 0.00 | 30 | 1010.3 |
| 20260503195407 | 61 | 322 | 8.0 | 16.0 | 0.00 | 0.00 | 0.00 | 30 | 1010.4 |
| 20260503194908 | 60 | 316 | 6.0 | 15.0 | 0.00 | 0.00 | 0.00 | 33 | 1010.3 |
| 20260503194409 | 59 | 349 | 6.0 | 15.0 | 0.00 | 0.00 | 0.00 | 32 | 1010.3 |
| 20260503193905 | 59 | 320 | 6.0 | 20.0 | 0.00 | 0.00 | 0.00 | 34 | 1010.4 |
| 20260503193408 | 58 | 321 | 6.0 | 18.0 | 0.00 | 0.00 | 0.00 | 34 | 1010.4 |
| 20260503192908 | 59 | 320 | 10.0 | 22.0 | 0.00 | 0.00 | 0.00 | 32 | 1010.5 |
| 20260503192405 | 59 | 342 | 8.0 | 20.0 | 0.00 | 0.00 | 0.00 | 33 | 1010.6 |
| 20260503191908 | 58 | 290 | 13.0 | 25.0 | 0.00 | 0.00 | 0.00 | 33 | 1010.5 |
| 20260503191404 | 58 | 334 | 7.0 | 20.0 | 0.00 | 0.00 | 0.00 | 34 | 1010.5 |
| 20260503190908 | 58 | 335 | 9.0 | 20.0 | 0.00 | 0.00 | 0.00 | 33 | 1010.5 |
| 20260503190408 | 58 | 343 | 7.0 | 18.0 | 0.00 | 0.00 | 0.00 | 34 | 1010.5 |
| 20260503185908 | 58 | 342 | 9.0 | 20.0 | 0.00 | 0.00 | 0.00 | 33 | 1010.6 |